ECMWFFLT1_925_thetae_132.txt.gz
Theta_e
342 342 341 342 342 341 340 340 341 341 340 339 339 339 339 339 339 339 340 340 339 339 339 339 339 339 338 337 336 335 334 333 333 333 332 332 331 330 329 329 329 328 328 328 329 328 326 324 320 318 317 315 315 313 311 310 309 309 309 308 308 308 308
342 342 342 342 342 342 341 341 341 340 340 339 339 339 339 339 339 339 340 340 339 339 339 338 338 338 337 337 335 334 334 334 333 332 332 331 331 330 329 328 328 328 328 328 328 328 328 328 324 320 318 317 316 314 313 311 310 310 309 307 308 308 308
342 342 342 342 343 342 342 342 341 340 339 339 339 339 339 339 339 339 340 339 339 339 338 337 338 337 336 335 335 334 334 334 333 332 332 332 331 331 331 330 329 329 328 328 328 327 328 328 326 323 321 320 318 316 314 312 310 309 309 308 308 307 308
343 342 343 344 343 342 342 342 341 340 339 338 339 339 339 339 339 339 340 340 339 339 338 337 337 337 335 334 334 334 333 333 333 332 332 332 331 331 331 331 330 329 329 328 328 328 327 328 327 325 323 322 320 319 315 312 310 309 309 308 308 307 308
344 343 344 344 343 342 343 342 342 341 339 338 339 339 339 339 339 339 339 339 339 339 338 337 336 336 335 334 334 334 333 333 333 333 332 333 332 331 331 330 330 329 329 328 328 328 328 327 327 326 324 322 320 319 315 313 311 310 309 308 307 307 307
344 344 343 344 343 343 342 343 342 341 339 339 339 339 339 340 339 339 339 339 339 338 338 337 336 335 335 335 334 333 333 333 333 332 332 332 332 331 331 330 330 329 329 328 328 328 328 327 327 325 323 321 320 318 314 313 311 309 309 308 307 307 307
344 344 343 342 343 342 342 343 342 341 339 339 339 339 339 339 339 339 339 339 339 338 337 336 335 335 334 334 333 333 332 331 331 331 331 331 331 331 331 330 330 330 329 328 328 328 327 327 326 324 323 321 321 319 314 312 311 309 309 308 307 306 306
345 344 343 342 342 342 342 342 342 341 340 340 340 339 339 339 339 339 339 340 339 337 337 336 335 334 334 333 332 332 331 330 329 329 329 329 330 330 330 330 330 329 329 328 328 328 327 326 324 323 323 321 320 319 316 313 310 310 309 307 306 306 306
345 345 344 342 342 342 342 342 342 340 340 340 339 339 339 339 338 339 340 339 338 337 336 335 335 334 333 332 331 330 330 329 328 328 328 328 328 329 328 328 328 327 327 327 326 326 325 324 323 322 323 321 319 318 316 314 311 311 309 307 306 305 306
346 346 345 343 342 343 342 341 341 340 340 340 340 339 339 339 338 339 339 338 337 337 336 335 335 333 332 330 329 329 328 327 326 327 327 327 327 327 327 327 326 326 326 325 325 324 323 322 321 320 321 320 318 317 316 314 313 312 310 308 307 306 305
346 346 346 344 343 343 342 342 341 341 340 340 340 340 339 338 338 339 339 338 337 336 335 335 333 332 330 329 328 327 327 326 325 325 325 324 325 325 325 325 324 324 323 322 321 320 320 319 318 317 318 317 316 316 316 315 314 314 311 309 309 307 304
346 346 346 344 343 343 342 342 342 341 341 341 341 340 339 338 338 338 338 337 336 336 335 334 332 330 328 328 328 327 326 324 324 324 323 322 323 322 322 322 321 321 319 318 317 317 316 316 315 315 315 315 316 316 316 315 315 315 313 310 308 306 304
346 346 345 344 344 343 342 342 342 342 341 341 341 340 339 339 338 338 338 336 336 335 334 332 330 329 327 327 327 326 325 323 322 322 321 320 320 320 320 320 319 318 317 315 315 314 314 314 314 313 313 314 315 315 315 315 315 315 313 310 307 305 304
346 346 345 344 344 343 342 341 341 342 342 341 341 340 339 339 338 338 337 336 335 334 333 331 329 328 327 326 326 325 323 322 321 321 320 319 318 318 318 318 317 316 315 314 314 312 312 311 311 311 312 312 312 312 313 313 313 315 312 309 307 304 304
346 346 345 345 344 343 342 341 341 342 342 341 341 340 339 338 338 337 337 335 334 333 332 330 328 327 326 326 325 323 322 321 320 320 319 317 317 317 317 316 315 315 314 313 312 311 310 309 308 308 308 309 310 311 311 311 312 314 312 308 307 305 303
346 346 345 345 344 343 342 341 341 341 341 341 341 340 339 338 337 337 336 335 334 333 331 329 327 326 325 325 323 322 321 320 319 319 318 316 316 316 316 315 315 314 313 312 311 309 309 308 307 307 307 308 309 310 311 310 311 313 311 308 306 305 304
345 345 345 345 344 343 342 341 341 341 341 341 340 340 339 337 337 336 335 334 333 332 330 328 327 325 324 324 322 321 320 320 319 318 317 315 315 315 315 315 314 313 312 311 311 309 309 308 306 307 307 307 310 311 311 310 311 310 310 308 305 305 305
345 345 345 344 343 342 342 342 341 340 340 340 340 339 338 337 336 335 334 333 332 331 329 327 326 324 323 322 321 321 320 319 318 317 316 315 314 314 314 314 314 312 311 311 310 309 308 307 307 306 305 306 309 309 308 309 309 308 307 307 305 305 305
344 345 345 344 343 342 342 341 340 339 340 340 339 338 337 336 335 335 334 333 332 330 328 327 325 324 323 321 320 320 320 319 318 316 315 315 314 314 314 314 313 311 311 311 310 309 308 308 307 306 305 306 305 304 305 307 306 305 306 306 306 305 304
343 344 344 344 343 342 341 341 340 339 339 340 339 337 336 335 334 334 333 332 331 330 328 326 324 323 322 321 320 320 319 318 316 315 314 314 313 313 313 313 312 311 310 310 310 309 308 308 307 306 306 306 302 301 304 306 304 305 306 306 305 305 305
343 343 344 343 343 342 341 340 339 338 339 339 338 337 336 334 333 333 332 331 330 329 327 325 324 322 321 320 320 320 319 317 316 314 314 313 313 313 312 312 311 310 309 310 309 308 308 307 307 306 306 305 303 302 304 305 304 305 305 305 305 305 305
343 343 343 342 342 341 341 340 339 338 339 339 338 337 335 334 333 332 331 330 328 327 325 325 325 324 321 319 320 320 319 317 315 314 313 312 312 312 311 311 310 309 309 309 308 307 307 306 306 306 305 304 304 305 305 304 304 305 304 304 305 305 305
343 342 342 342 342 341 340 339 338 338 338 338 337 336 335 333 332 332 330 328 327 325 325 326 328 326 322 319 320 320 318 316 314 313 313 312 312 311 311 310 309 308 307 306 304 303 303 301 303 305 305 304 304 305 305 305 304 304 304 305 305 306 305
342 342 342 342 341 340 340 339 338 338 338 337 337 335 334 333 332 331 329 327 326 325 326 327 330 328 323 320 320 319 318 316 314 313 312 312 312 311 310 310 309 307 305 303 302 302 301 301 301 303 302 303 305 306 305 305 305 305 305 305 305 306 305
342 342 341 342 341 340 339 338 338 338 337 337 336 335 333 333 331 330 328 327 326 326 326 328 330 328 322 320 319 319 317 315 313 312 312 312 311 310 310 310 309 306 304 304 303 302 302 301 302 302 300 299 302 304 305 305 305 305 304 305 306 306 305
341 341 341 341 340 339 338 337 337 337 337 337 335 334 333 332 331 329 328 327 326 325 326 328 330 327 322 319 319 318 317 315 313 312 311 311 310 310 310 309 309 307 305 304 304 303 303 302 302 301 299 296 297 299 300 303 304 304 305 306 306 305 305
341 341 340 340 339 338 337 337 337 337 337 336 335 334 333 331 330 329 328 327 326 325 325 327 329 326 321 319 319 318 316 314 312 311 311 310 310 310 310 309 309 308 308 306 304 305 304 302 301 300 298 298 298 298 297 299 301 301 303 306 306 306 305
341 340 339 339 338 337 337 336 337 337 337 336 335 334 332 330 329 329 328 327 325 324 325 327 328 326 321 319 319 317 315 313 312 311 311 310 311 310 309 309 309 309 309 307 305 305 306 304 302 301 300 301 302 301 300 299 300 300 301 303 305 306 305
340 340 339 338 338 337 336 336 336 337 337 335 334 334 332 329 328 328 327 326 325 324 324 327 329 326 321 318 317 316 314 313 312 311 311 311 311 310 309 309 309 309 310 308 306 305 306 305 303 302 302 303 303 303 303 302 301 301 301 302 303 305 305
341 340 338 337 337 336 336 336 337 336 336 336 334 332 331 329 328 327 326 325 324 323 323 326 328 325 321 318 315 313 313 313 312 311 311 311 310 310 310 308 308 309 310 308 306 305 305 304 304 303 303 304 304 304 305 304 302 300 300 300 301 303 304
340 339 338 337 336 336 336 336 336 335 335 336 334 332 330 329 328 326 325 324 324 323 324 325 326 325 321 317 314 313 313 312 311 311 311 311 310 310 309 308 308 309 309 308 306 304 304 303 304 303 303 304 304 303 304 306 304 301 300 299 298 299 300
340 338 337 337 336 336 336 336 335 334 334 334 333 331 330 329 328 326 325 324 324 324 324 325 325 324 322 317 313 313 313 312 311 311 311 311 310 309 309 308 308 308 308 307 305 304 303 302 302 303 303 303 303 302 302 306 306 303 302 301 299 299 299
339 338 337 337 336 335 335 335 334 334 333 332 331 330 329 328 327 326 324 324 324 324 324 325 324 324 322 317 313 313 313 311 311 311 311 310 309 309 310 309 307 306 307 306 304 304 303 300 300 303 303 302 302 302 302 305 306 304 303 303 302 301 301
338 337 337 336 335 334 334 334 334 333 333 333 332 330 329 327 326 325 325 324 324 323 323 324 324 323 321 317 313 312 312 312 311 311 310 310 309 309 309 308 306 304 304 304 303 304 301 296 297 303 303 301 302 302 302 305 305 303 303 304 304 303 303
338 337 336 336 335 334 334 335 334 333 333 333 332 330 328 326 326 327 325 323 322 322 321 322 323 323 321 317 313 311 312 312 310 310 310 309 309 309 308 308 307 304 303 302 303 304 301 295 295 301 303 301 302 302 302 303 304 302 301 302 303 304 303
337 337 336 335 335 334 334 334 334 332 332 332 331 329 327 326 326 326 324 322 321 320 319 318 320 321 320 317 313 311 311 310 309 309 309 309 309 309 308 309 308 305 302 302 303 303 303 298 294 296 301 303 302 301 301 301 301 301 300 300 302 303 303
337 336 336 335 335 334 333 333 333 332 331 330 329 328 326 326 325 323 321 320 320 319 318 316 317 319 319 317 313 311 310 309 307 308 309 309 309 309 309 309 308 305 303 303 304 303 303 302 298 296 299 301 301 300 302 301 300 300 300 300 301 302 302

ECMWFFLT1_925_thetae_138.txt.gz
Theta_e
342 343 341 341 342 341 339 337 338 339 340 339 339 339 339 339 340 342 342 342 343 343 343 342 342 343 344 343 341 341 340 339 337 335 336 336 336 336 336 335 335 335 334 332 333 333 334 333 329 326 325 322 321 320 318 316 315 314 312 311 311 311 311
342 343 342 342 343 342 341 339 338 338 339 339 338 338 339 339 339 341 342 342 343 343 342 341 341 342 344 343 341 341 340 339 337 337 336 336 336 336 336 335 335 335 334 333 332 331 333 335 332 328 325 323 322 321 319 318 317 315 313 312 312 311 312
342 343 343 343 343 343 342 340 339 338 338 338 338 338 339 339 340 340 342 343 342 342 342 341 341 342 343 342 341 341 340 338 337 337 336 335 335 335 335 335 335 335 334 333 332 330 330 332 332 329 325 324 324 322 320 319 318 317 314 313 312 312 312
343 343 344 343 344 344 344 342 340 338 338 339 339 339 339 339 341 341 341 342 343 342 342 341 341 342 342 342 341 341 340 339 338 337 335 335 335 336 335 335 334 334 334 332 331 330 329 330 332 331 326 323 323 323 322 320 319 318 316 313 313 312 312
344 343 344 344 344 345 345 343 341 340 340 340 340 340 340 340 341 341 341 342 343 342 342 342 341 341 342 342 341 341 340 339 338 336 335 335 336 336 335 334 333 333 333 331 330 330 330 329 331 332 329 326 325 324 322 321 320 319 317 314 313 313 312
345 344 344 345 345 345 345 344 343 341 341 341 342 341 341 340 340 341 342 342 342 342 342 341 341 341 342 342 341 341 340 339 338 337 336 336 336 336 335 334 333 333 332 331 330 330 330 330 330 332 331 329 329 326 323 321 320 319 317 315 314 313 312
346 344 345 345 344 344 345 345 344 342 342 342 342 342 341 341 341 341 342 342 342 342 341 341 341 341 341 341 341 341 340 339 338 337 337 337 337 336 335 334 333 333 332 332 331 330 330 330 331 332 331 331 330 325 322 321 320 319 318 315 314 313 312
346 345 345 345 345 344 345 345 344 343 342 343 343 343 342 341 342 342 341 342 342 342 341 342 341 341 341 341 340 340 339 339 338 338 337 337 337 335 334 334 333 332 332 332 332 331 330 330 331 331 331 332 333 328 323 321 320 318 317 316 314 313 312
347 347 346 346 346 345 344 345 345 345 344 344 343 343 342 342 342 342 341 342 342 342 342 341 341 341 341 340 340 339 339 339 339 337 337 337 335 334 333 333 332 332 332 332 332 332 331 331 331 330 330 330 332 332 328 326 323 319 317 315 314 313 312
348 348 347 347 346 346 345 345 346 346 345 344 344 343 343 342 342 341 342 342 342 343 343 342 341 341 341 340 339 338 338 338 337 336 335 335 334 334 334 334 333 333 333 332 332 332 331 331 330 330 330 328 329 331 331 331 328 322 317 315 313 312 311
349 348 347 347 346 346 346 346 346 346 345 345 344 343 343 342 342 342 341 342 342 343 343 342 342 341 341 340 339 338 337 337 336 335 335 335 334 333 333 334 334 333 333 332 332 332 331 331 330 328 329 328 328 328 328 329 327 322 317 315 313 312 311
349 348 348 347 347 347 347 346 346 346 346 345 344 344 344 343 342 342 342 342 341 343 343 342 342 342 341 339 339 338 337 336 336 335 334 334 333 332 332 332 333 332 332 332 332 331 330 329 329 328 328 328 326 324 323 324 324 322 318 314 312 311 310
350 349 349 348 347 347 348 347 346 346 345 345 345 344 343 343 343 343 342 342 342 343 343 343 342 342 340 339 338 338 337 336 335 334 333 332 332 332 332 332 332 331 331 331 330 331 330 330 329 328 327 326 324 322 321 320 321 321 317 313 311 311 310
350 350 349 349 348 348 348 347 346 346 345 345 345 344 343 343 343 343 342 342 342 342 343 343 342 341 340 339 338 337 337 336 335 334 333 332 331 331 332 332 332 331 330 330 330 329 329 328 327 326 325 323 322 320 319 319 319 319 316 313 311 310 309
350 350 350 349 349 348 348 347 347 346 345 345 345 345 344 343 343 343 342 341 341 342 343 343 342 341 340 339 338 337 336 335 334 333 332 331 331 330 330 331 331 330 329 330 329 327 327 326 325 324 324 321 319 317 317 318 318 318 316 314 311 309 308
351 351 351 349 349 348 348 347 347 346 345 345 345 344 343 343 343 343 342 341 341 341 342 342 341 340 339 339 338 337 336 335 334 333 332 331 331 331 330 329 328 329 328 328 327 326 326 324 322 322 321 319 317 316 316 317 316 316 317 314 311 310 309
351 351 350 350 349 349 348 348 347 346 345 345 345 344 343 343 343 342 342 341 341 341 341 341 341 340 339 339 337 336 335 334 333 333 331 331 331 330 330 329 328 328 327 327 326 325 324 322 320 319 318 317 315 314 315 315 313 315 317 315 312 311 310
351 351 350 350 350 350 349 348 348 346 345 345 346 344 343 343 343 342 342 341 340 340 340 341 341 340 339 338 337 336 335 334 333 333 332 331 330 330 329 328 327 327 327 325 325 323 321 319 317 316 315 314 313 312 313 313 313 315 317 315 313 312 310
351 350 350 350 350 350 350 349 348 347 346 345 345 344 343 343 343 342 342 341 340 339 339 340 341 340 339 337 337 336 335 333 333 333 332 330 330 329 328 327 326 325 325 324 323 321 319 316 315 313 311 311 310 311 312 313 313 315 315 314 313 310 309
350 350 350 350 350 350 350 349 348 347 346 345 345 344 343 343 343 342 342 341 340 339 339 340 340 340 338 337 336 335 334 333 333 332 331 330 329 328 327 325 324 324 324 322 321 320 318 315 313 311 310 310 310 312 314 314 313 312 312 312 311 309 308
349 349 349 349 350 350 350 350 349 348 347 346 345 344 344 344 343 343 342 341 340 339 338 339 340 339 338 337 336 335 334 333 332 331 331 330 329 328 326 324 323 323 322 321 320 319 316 314 312 311 310 310 311 314 315 313 310 309 309 310 310 309 308
349 348 348 349 350 350 350 350 349 348 347 346 345 344 344 344 344 343 342 342 341 340 338 338 339 339 338 336 336 335 334 333 331 330 330 330 328 327 325 323 322 322 321 320 319 317 315 313 311 311 310 310 312 314 313 310 307 307 308 309 309 309 308
350 349 349 349 349 350 350 350 349 348 347 346 345 345 344 344 344 343 343 342 341 340 339 338 339 338 338 336 335 335 334 332 331 330 330 329 327 325 323 321 321 321 320 320 318 316 314 313 311 310 309 310 312 312 309 307 307 308 308 308 309 309 308
350 349 348 349 349 349 349 350 350 349 348 346 345 345 344 344 344 344 343 342 341 340 339 339 338 338 338 336 335 335 333 332 331 330 329 328 326 324 322 320 320 319 319 318 316 315 314 312 311 311 310 310 311 309 306 306 308 308 307 308 308 308 308
349 349 349 348 348 348 349 349 350 349 348 347 345 345 345 345 344 344 343 342 342 341 340 339 338 338 338 336 335 334 332 331 330 329 329 327 325 323 321 319 319 318 318 317 315 314 313 312 311 310 310 310 309 307 305 306 308 307 307 308 308 307 308
346 347 348 348 348 348 349 349 350 349 348 347 346 345 345 344 344 344 344 343 342 342 341 340 338 338 338 336 335 333 331 330 328 328 328 326 324 322 320 319 318 318 317 315 314 313 312 311 310 310 311 310 308 306 306 307 309 308 307 307 307 307 308
342 344 346 348 348 347 348 349 349 349 348 347 346 345 345 344 344 344 344 343 342 342 341 340 338 337 337 336 334 332 330 329 328 328 328 325 323 321 319 318 317 317 315 313 313 312 311 311 309 308 309 308 307 306 307 308 309 309 308 307 308 308 308
339 340 343 346 347 347 347 348 349 349 348 347 346 345 345 344 344 344 344 344 343 342 341 340 338 337 337 336 334 331 330 329 329 329 327 325 322 320 319 318 317 316 314 312 312 311 311 310 308 307 307 307 306 306 306 308 308 308 308 308 308 309 309
339 339 340 344 346 346 346 347 348 348 348 347 346 345 344 344 343 343 343 343 342 342 341 340 338 337 336 335 332 331 329 329 329 328 326 323 321 320 319 318 317 316 314 312 311 310 310 309 307 305 305 305 305 305 305 306 306 306 306 307 307 309 309
339 339 339 342 344 345 345 347 348 348 347 347 346 345 344 343 343 343 343 343 342 342 341 339 338 337 335 333 331 330 329 328 328 326 324 322 321 319 318 317 316 315 314 312 311 310 309 307 305 303 303 304 304 304 304 304 305 305 305 305 305 306 308
338 338 338 338 342 345 345 346 348 348 347 346 346 345 344 343 343 343 343 343 342 341 340 338 337 336 334 332 331 329 328 327 326 325 324 322 320 319 318 317 316 316 314 312 311 309 307 306 304 302 303 303 303 302 302 302 303 304 304 304 303 304 306
336 337 337 335 339 343 345 345 347 347 346 346 345 345 344 343 343 343 342 342 341 341 339 337 335 335 334 332 330 329 328 327 326 326 325 322 320 318 317 316 316 315 313 312 310 308 306 305 304 304 304 303 301 302 303 300 299 301 301 301 301 301 302
335 336 337 336 338 343 344 344 346 346 346 345 345 344 343 343 342 342 342 342 341 340 339 336 334 334 333 331 329 329 328 327 327 326 324 321 319 317 316 315 315 315 313 312 310 307 305 305 306 305 304 302 300 301 303 301 300 302 302 299 298 298 299
336 336 337 337 338 342 344 344 345 346 345 344 344 344 343 342 342 342 341 341 340 339 338 335 333 332 331 330 328 328 328 328 327 325 322 319 318 317 316 315 314 314 313 312 311 308 305 305 307 306 304 302 298 299 303 306 306 306 305 301 298 297 297
336 336 337 336 335 338 342 344 345 345 345 344 344 343 342 341 341 341 341 340 339 338 337 335 334 332 331 329 327 327 328 328 327 324 321 318 317 316 316 315 314 313 313 313 312 309 306 305 307 306 304 302 301 301 305 309 309 308 307 304 301 299 299
334 335 336 335 332 333 339 343 345 345 344 344 343 342 342 341 340 340 340 339 339 337 336 334 334 333 331 328 326 326 327 327 326 323 320 318 317 317 316 315 314 313 312 312 313 311 307 305 306 306 305 304 305 305 306 308 308 309 308 307 304 303 303
333 333 334 335 334 334 338 343 345 344 343 343 342 342 341 340 339 339 339 338 338 336 334 333 333 333 331 328 325 325 326 326 324 322 320 319 317 317 316 315 314 312 311 311 312 311 308 305 305 306 307 306 306 306 306 306 307 308 307 307 306 305 305

ECMWFFLT1_925_thetae_141.txt.gz
Theta_e
340 340 339 338 339 339 336 333 336 338 339 339 337 336 338 339 339 340 341 342 343 342 342 342 342 342 343 342 341 339 338 337 336 336 336 336 335 335 333 333 332 333 334 332 331 332 333 333 331 329 327 324 322 322 320 317 315 314 313 311 310 311 311
340 340 339 338 339 340 336 332 335 338 340 339 338 337 338 338 338 340 341 341 342 342 341 342 343 342 342 342 342 339 339 338 337 336 335 335 335 335 335 334 334 334 334 334 332 331 330 332 332 329 327 324 322 322 321 318 315 315 314 313 311 310 311
339 340 340 339 339 340 336 332 333 336 339 340 339 338 338 338 338 339 340 341 342 343 342 342 343 342 342 343 342 340 339 339 338 336 335 335 335 335 336 335 335 335 335 334 333 332 330 330 331 328 325 323 322 321 322 320 317 315 315 314 312 311 311
339 339 341 340 340 341 338 334 332 333 337 340 340 339 338 339 338 338 339 341 342 342 343 343 342 342 342 343 343 341 340 339 339 338 336 336 335 335 336 335 335 335 335 334 333 333 331 329 331 329 324 323 322 322 322 322 320 317 316 315 313 311 311
340 339 341 341 340 342 341 337 335 333 335 338 339 339 339 339 339 338 339 340 341 342 342 343 342 342 341 342 343 342 341 340 339 338 337 336 336 336 335 335 336 335 335 334 333 333 332 330 330 329 325 324 323 322 322 322 321 320 318 316 314 311 312
341 339 340 341 341 341 342 340 338 336 336 338 339 339 339 339 339 339 339 340 340 341 341 342 342 341 341 342 343 342 341 340 339 338 337 337 336 335 336 336 335 335 335 334 333 333 331 330 328 328 327 326 323 322 323 322 321 321 320 318 316 312 312
341 340 340 341 342 341 342 341 339 338 337 338 339 339 339 338 338 339 339 340 340 341 341 342 341 341 341 341 342 342 341 340 339 338 337 337 336 335 335 335 335 335 334 334 333 332 330 330 329 328 328 329 326 323 322 323 322 320 320 320 318 314 312
341 340 340 341 342 341 342 342 341 339 338 338 338 338 339 338 338 338 339 340 340 341 342 341 341 341 341 341 342 342 341 340 339 339 338 337 336 335 335 335 335 335 334 333 333 332 331 330 330 329 330 332 331 326 321 321 321 320 320 320 318 315 313
342 342 341 341 343 342 342 342 342 341 339 338 338 338 338 338 338 338 339 340 340 341 342 342 341 341 341 341 342 341 341 340 340 339 338 337 336 335 334 335 335 335 334 333 333 332 331 331 330 330 330 330 333 332 325 322 320 319 320 320 317 315 314
342 343 342 342 342 343 343 342 343 342 341 340 339 338 338 338 338 339 339 340 341 340 341 342 341 341 341 341 341 341 341 340 340 339 338 337 336 336 335 336 335 334 334 333 333 332 331 332 331 330 331 329 330 333 330 327 323 319 319 319 316 314 314
343 343 343 343 342 343 343 343 343 343 342 341 340 339 340 339 339 340 340 341 341 341 341 342 342 341 341 341 341 341 341 340 340 339 338 338 337 336 337 337 335 334 333 333 332 332 332 332 331 330 331 330 329 330 329 329 328 321 319 319 317 315 315
345 344 344 344 343 343 344 344 343 343 343 342 341 340 341 341 340 340 340 341 341 341 341 341 342 341 341 341 341 341 341 340 340 339 338 338 337 337 337 336 334 333 333 332 332 333 332 332 332 331 331 330 329 329 327 327 328 323 318 318 317 315 315
345 345 345 345 344 344 344 344 344 344 343 343 342 341 342 341 341 341 341 341 341 342 341 341 342 342 341 341 341 341 340 340 339 339 339 338 337 336 336 334 334 333 333 333 333 333 332 332 332 331 331 330 329 329 326 323 323 321 317 316 316 314 313
347 346 346 345 345 345 345 344 344 344 344 344 343 342 342 342 342 341 341 341 341 341 341 341 341 342 341 341 341 340 340 339 339 339 338 338 336 335 334 333 333 332 332 333 333 332 332 331 332 331 330 330 328 328 326 322 320 317 314 313 313 312 312
348 348 347 346 346 346 346 345 344 344 344 344 344 343 343 342 342 342 341 341 341 341 341 341 342 342 342 341 341 340 339 338 338 338 337 336 335 334 334 333 332 331 331 331 331 331 330 330 331 331 330 329 328 327 325 322 319 317 313 311 310 310 310
348 348 348 348 347 346 346 346 345 345 344 345 345 344 344 343 342 342 342 341 341 341 342 341 342 342 342 342 341 340 339 338 338 337 336 335 335 334 333 332 332 331 331 331 330 329 329 330 330 330 330 329 327 325 324 321 319 317 314 310 309 310 310
348 349 349 348 348 347 347 346 346 346 345 345 345 344 344 343 343 343 342 342 341 341 341 341 342 342 342 342 341 339 339 338 337 336 336 335 334 333 332 331 331 331 332 332 331 330 330 329 329 328 328 327 326 325 322 319 317 317 315 311 309 309 309
349 350 349 349 349 348 347 346 346 346 346 345 345 345 344 344 343 343 342 342 342 341 341 341 342 342 342 342 341 340 339 338 337 336 335 334 334 333 332 331 330 330 331 331 330 330 329 328 327 326 326 324 323 323 321 317 316 317 316 313 310 309 308
350 350 349 349 349 348 348 347 346 346 346 345 345 345 345 344 343 343 343 342 342 341 341 341 342 342 342 342 341 340 339 338 337 335 335 334 333 332 332 331 330 330 330 329 329 328 328 326 325 325 324 322 321 320 318 316 315 316 316 315 313 310 309
349 349 349 349 349 349 348 347 347 346 346 346 345 345 344 344 344 343 342 342 341 342 341 341 341 342 342 342 341 340 338 338 336 335 334 334 333 332 331 331 330 330 329 329 328 328 327 326 325 324 322 320 319 318 316 314 314 315 314 315 314 312 311
348 348 349 349 349 349 349 348 347 346 346 346 346 345 345 344 344 343 343 342 342 341 341 341 341 341 341 341 341 339 338 337 336 335 334 333 332 332 331 330 330 330 329 329 328 328 327 326 325 323 320 318 317 315 313 313 314 314 314 315 315 313 311
346 346 347 348 349 349 349 348 348 347 347 346 345 345 345 344 344 343 343 342 342 341 341 340 340 340 340 340 340 339 338 337 336 335 334 333 332 332 331 330 330 329 329 328 327 327 326 325 325 322 318 316 314 312 312 312 313 314 314 314 314 312 310
343 341 342 346 348 349 349 349 348 348 347 347 346 345 345 344 344 343 342 342 341 341 341 340 340 340 340 340 340 339 337 336 335 334 333 333 332 331 331 330 329 328 328 327 326 325 325 324 324 322 318 315 312 310 311 313 313 313 312 311 311 310 308
339 338 340 345 348 349 348 348 348 348 348 347 346 345 345 344 344 343 342 342 341 341 341 340 340 339 340 340 339 338 337 336 335 334 333 333 332 331 330 329 329 328 327 325 324 324 323 322 322 321 318 315 311 310 311 312 312 312 310 309 309 309 308
339 341 343 347 348 349 348 348 348 348 348 348 347 345 345 344 344 343 342 342 341 341 341 340 340 339 339 340 340 338 337 336 335 334 333 332 331 331 330 329 328 327 325 324 323 322 322 321 320 318 316 313 311 310 310 311 312 311 309 308 308 309 308
342 345 347 348 348 348 348 348 348 348 348 348 347 346 345 344 344 343 342 342 342 341 341 340 340 339 339 339 339 339 337 336 335 333 332 332 331 330 330 328 327 325 324 322 322 321 321 320 318 315 313 311 310 310 311 311 312 310 308 307 308 308 308
344 346 348 349 348 347 347 347 348 348 348 348 347 346 345 344 344 343 343 342 342 341 341 341 340 340 339 339 339 339 337 336 335 333 332 331 330 330 329 327 326 324 322 321 321 320 319 318 315 313 312 311 310 310 311 310 309 308 307 307 307 307 308
343 346 349 349 348 348 347 347 347 348 348 348 347 346 345 345 344 343 343 342 342 341 341 340 341 340 339 338 339 338 337 335 335 333 332 331 330 329 328 327 326 323 321 320 320 319 318 316 314 313 311 311 310 310 310 308 307 307 308 307 307 307 308
337 341 346 348 349 348 347 346 347 347 347 348 347 347 345 345 344 343 343 343 342 342 341 341 341 340 339 338 338 338 336 335 334 333 331 330 329 329 328 327 325 322 320 319 319 319 318 316 314 312 311 311 310 309 309 307 307 308 309 307 307 307 308
333 335 340 344 347 348 347 346 346 346 347 347 347 347 346 345 344 344 343 343 342 342 342 341 341 340 340 339 338 337 335 334 333 332 331 330 329 328 326 326 324 322 320 319 318 317 317 315 313 312 310 310 309 308 308 307 307 308 309 307 307 308 308
333 334 336 339 343 345 346 346 346 346 346 347 347 347 346 345 344 344 343 343 343 342 342 341 341 341 340 339 337 336 335 333 332 331 330 329 328 327 326 325 324 322 319 318 317 316 315 314 313 311 310 309 308 307 307 306 307 307 308 307 307 308 308
333 333 335 336 337 340 343 346 346 345 346 346 347 347 346 345 344 344 343 343 343 342 342 342 341 341 340 339 337 336 334 332 331 330 329 327 326 325 325 323 322 321 319 318 317 316 314 313 312 311 309 308 307 306 306 306 306 306 307 306 307 307 308
333 333 334 334 334 335 339 343 344 345 345 346 345 345 344 344 344 344 343 343 343 342 342 342 341 341 340 340 337 335 334 332 330 329 328 326 324 323 322 321 320 319 319 318 316 315 314 313 312 311 309 307 307 306 306 305 305 305 306 306 306 306 306
334 333 332 333 335 335 336 338 341 343 345 345 343 342 342 343 344 344 343 343 342 342 341 341 341 341 340 340 338 335 333 332 331 329 327 325 324 322 321 320 318 318 318 318 316 315 314 313 312 311 309 308 307 306 305 304 304 304 304 305 305 305 304
335 333 332 332 333 334 334 336 338 340 342 344 342 337 336 337 340 342 343 343 342 342 342 341 341 340 340 339 337 335 334 332 331 329 327 325 323 322 321 319 318 317 318 317 316 315 314 313 311 310 309 309 307 305 303 302 302 302 303 303 303 303 302
335 334 333 332 332 333 334 335 336 337 338 340 339 334 333 334 336 339 341 342 342 341 341 341 340 340 340 338 337 335 334 332 331 329 327 326 323 321 320 319 318 317 318 317 316 315 314 313 311 309 308 307 305 303 301 300 300 301 300 300 301 301 301
334 333 333 332 331 332 334 335 335 334 332 333 333 333 334 335 334 335 338 340 341 341 340 339 338 339 339 338 336 334 333 332 331 330 328 326 324 322 320 319 318 318 318 317 316 315 314 312 310 308 307 305 303 302 300 300 301 301 300 301 303 303 302

ECMWFFLT1_925_thetae_144.txt.gz
Theta_e
341 340 341 341 340 339 338 338 338 337 336 336 336 337 332 329 332 333 334 338 341 341 341 342 342 342 342 341 340 340 340 340 339 337 336 336 335 334 333 333 332 332 332 331 331 332 335 335 331 329 330 329 325 322 321 321 320 319 319 317 316 315 313
340 340 340 340 339 339 338 338 338 337 336 336 336 336 333 330 332 334 334 336 339 342 341 342 343 343 342 342 341 341 341 341 339 338 336 336 336 335 334 333 332 332 332 333 332 329 330 334 334 330 328 328 326 323 322 321 321 320 320 319 317 315 314
340 340 339 340 339 338 337 337 337 337 336 336 336 335 334 332 333 336 337 338 339 341 341 342 342 343 342 342 341 341 341 341 339 338 336 335 335 335 335 334 332 332 332 332 332 330 328 329 332 331 326 326 326 324 323 321 321 321 321 319 317 315 314
339 339 339 339 338 338 337 337 337 337 336 336 336 335 335 335 336 337 339 340 340 340 341 342 342 343 342 342 342 341 341 341 340 338 336 335 335 335 335 334 333 333 332 332 332 332 329 327 330 330 325 325 326 325 325 324 322 322 321 320 317 315 314
339 339 339 339 339 338 338 337 336 336 337 337 336 336 335 336 337 338 339 340 340 340 341 341 342 342 342 342 342 342 342 341 340 339 337 336 335 335 335 334 334 334 332 333 332 333 331 329 330 328 325 326 326 325 326 325 323 322 321 320 318 316 314
339 338 339 339 338 338 338 337 336 335 337 338 337 337 336 336 337 338 339 339 340 340 340 341 342 341 341 342 342 342 342 341 341 339 338 338 336 335 335 335 334 334 333 333 333 333 333 331 329 327 326 326 325 325 326 325 323 322 321 320 319 316 314
339 338 339 339 339 339 338 337 336 335 336 338 338 338 338 337 337 337 338 338 339 340 340 341 341 342 341 342 342 342 342 341 341 340 339 338 338 336 335 335 334 334 334 334 334 334 334 333 330 328 327 326 324 323 324 324 323 322 321 321 320 317 316
339 339 338 339 339 339 339 338 337 335 335 337 338 338 338 338 338 337 337 338 338 339 340 340 341 342 342 342 342 342 342 342 342 341 340 338 338 337 336 335 335 335 335 334 334 334 334 333 332 330 329 328 328 325 321 322 322 321 322 322 321 319 318
340 339 339 339 339 339 339 338 337 336 335 335 336 337 338 338 338 338 338 337 338 338 339 340 340 341 342 342 342 342 342 342 342 341 340 339 339 338 337 336 335 335 335 335 335 335 334 334 334 333 329 328 331 330 325 324 323 321 323 322 320 321 320
340 340 339 339 339 339 339 339 339 338 336 335 335 336 337 338 338 338 338 338 338 338 338 339 340 341 342 342 342 342 342 341 342 341 341 340 339 339 338 337 336 335 335 335 335 335 334 334 333 332 331 327 329 332 331 331 326 320 322 323 321 321 321
341 340 340 339 339 339 339 339 339 339 338 337 336 335 336 336 337 337 338 338 338 338 338 339 340 340 341 341 341 341 341 341 341 341 341 340 339 339 338 337 336 336 335 335 335 335 334 334 333 331 331 330 329 330 329 332 330 323 321 323 322 322 321
341 341 340 340 339 339 339 339 340 340 339 339 338 337 336 336 337 337 337 338 338 338 339 339 339 340 340 341 341 341 341 341 341 341 341 340 339 338 337 337 336 335 335 335 334 335 334 333 333 332 332 331 330 330 328 328 331 328 323 323 323 322 322
342 341 341 340 340 339 339 340 340 340 340 340 339 338 337 337 337 337 338 338 338 338 339 339 340 340 340 341 341 341 341 341 341 341 340 340 339 338 337 337 336 336 335 335 334 335 335 333 333 332 332 331 330 331 329 327 328 328 324 323 322 321 321
342 342 341 341 340 340 340 340 340 340 341 340 340 339 338 338 337 338 338 338 338 338 338 339 340 340 340 341 341 341 341 341 340 340 340 340 339 338 338 337 337 336 335 335 335 335 334 333 333 331 331 332 331 330 330 328 326 324 321 320 320 319 318
343 342 342 341 341 340 340 340 340 341 341 341 341 340 340 339 338 338 338 338 338 338 338 338 339 340 340 341 341 341 341 340 340 340 340 340 339 338 338 337 337 336 335 335 336 335 334 333 332 332 332 332 331 330 330 329 326 322 318 317 317 317 317
343 343 342 342 342 341 341 340 340 341 342 341 341 341 341 340 339 339 338 338 338 338 339 339 339 340 340 340 340 340 340 340 340 340 339 339 339 338 338 337 337 336 336 336 336 334 333 333 332 332 332 332 331 330 330 329 326 322 318 314 314 315 315
343 343 343 343 342 342 342 341 341 341 341 342 342 342 342 341 340 340 339 339 339 338 339 339 339 340 340 340 340 340 340 340 340 340 339 339 339 338 337 337 336 336 336 336 335 333 333 333 333 332 332 331 331 331 330 329 326 323 319 314 312 313 314
344 344 344 344 343 343 343 342 342 342 342 342 342 342 342 342 341 341 340 339 339 339 339 339 340 340 340 340 340 340 340 340 339 339 339 339 339 338 337 337 336 336 335 334 334 333 332 332 332 332 332 331 331 331 330 328 326 323 320 316 313 311 311
343 345 345 344 345 344 344 343 343 343 343 342 343 342 342 342 342 341 341 340 340 340 339 340 340 340 340 340 340 340 340 340 339 339 339 338 338 338 337 337 336 335 334 334 333 332 331 331 331 331 331 330 330 330 329 327 325 322 319 317 314 310 309
339 345 346 345 346 345 345 344 344 344 343 343 343 343 343 343 342 342 342 341 341 340 340 340 340 340 340 340 340 340 340 339 339 339 339 338 338 337 337 336 336 335 334 333 333 331 330 330 331 330 330 329 329 328 327 325 323 320 317 316 313 310 309
338 343 345 346 346 346 346 346 345 344 344 344 344 344 343 343 343 342 342 341 341 341 340 340 340 340 340 340 340 340 340 340 339 338 338 338 337 337 336 335 335 334 334 334 333 331 330 330 331 331 330 329 328 326 325 324 322 319 316 315 313 310 309
338 341 344 346 346 346 346 346 346 345 345 345 345 344 344 343 343 343 343 342 342 341 341 341 340 340 340 340 340 340 340 340 339 338 338 337 337 336 336 335 334 334 334 333 332 331 330 330 330 331 329 328 326 325 323 322 320 317 315 314 313 310 309
337 340 343 346 347 346 346 346 346 346 346 345 345 345 344 344 344 343 343 342 342 342 341 341 341 340 340 340 340 340 340 339 339 339 337 336 336 335 335 334 334 333 333 333 332 331 330 329 329 329 329 327 325 324 321 319 317 316 314 313 313 311 309
334 338 341 345 347 347 347 347 347 347 346 346 345 345 345 344 344 344 343 343 342 342 341 341 341 341 340 340 340 340 340 339 339 338 338 337 336 335 334 334 333 333 332 332 332 331 330 329 329 328 327 327 326 324 322 319 316 314 313 313 313 312 310
337 339 342 345 346 346 347 347 347 347 347 346 346 345 345 344 344 344 343 343 342 342 342 342 341 341 341 340 340 340 340 339 339 338 337 337 336 334 333 332 332 332 332 332 331 331 330 329 329 328 327 326 325 324 323 321 319 315 313 312 312 312 311
342 342 344 344 344 344 345 346 347 347 347 347 346 346 345 344 344 344 343 343 343 342 342 342 341 341 341 340 340 340 340 339 339 338 337 336 336 335 334 332 331 331 331 331 331 330 330 329 328 327 326 325 324 323 322 321 319 316 313 312 312 312 312
339 341 342 342 342 343 343 344 346 347 347 347 346 346 345 345 344 344 344 343 343 342 342 342 342 341 341 341 340 340 339 339 338 338 337 336 336 335 334 332 331 331 331 331 330 330 329 328 327 326 325 324 322 321 319 317 314 313 312 311 311 311 311
333 336 338 339 339 340 341 342 343 345 346 347 346 346 346 345 345 344 344 343 343 343 342 342 342 342 341 341 340 339 339 339 338 337 337 336 336 336 334 332 331 331 331 330 330 329 328 327 326 324 323 322 320 319 317 315 312 311 311 311 311 311 311
327 331 335 337 338 339 340 341 341 341 341 343 345 346 346 345 345 344 344 344 343 342 342 342 342 342 341 340 340 339 338 338 338 337 336 336 336 335 334 333 331 331 331 330 330 329 327 326 325 323 322 320 318 317 315 314 312 311 311 311 311 311 310
324 327 331 334 335 336 338 340 341 340 338 337 339 342 345 346 346 344 344 343 343 342 342 342 342 342 341 340 339 338 337 338 338 337 336 335 335 335 334 332 331 331 331 330 330 328 327 325 324 322 320 318 316 314 313 312 311 311 311 311 310 309 307
323 326 328 330 331 332 333 334 337 338 337 335 334 336 338 341 344 345 345 344 343 343 342 342 342 342 341 340 339 338 337 337 337 336 335 335 334 334 334 332 331 331 331 330 330 328 326 325 323 321 319 317 314 312 311 310 310 310 309 309 308 307 307
323 324 326 328 330 331 331 331 332 334 334 334 333 333 333 334 338 342 344 344 344 343 343 342 342 342 341 340 339 338 336 336 336 336 335 334 333 332 332 331 330 330 331 331 330 328 326 324 322 320 318 316 313 311 311 310 309 309 309 308 308 308 307
324 324 325 326 327 329 331 331 332 333 333 332 332 333 333 333 334 335 337 340 342 343 343 342 342 342 341 340 340 338 336 336 336 336 335 334 333 331 330 329 329 329 330 330 330 328 327 325 323 321 318 315 313 312 311 310 309 309 308 308 308 308 308
324 324 324 326 327 329 330 331 331 333 334 333 332 333 334 335 334 334 334 336 338 341 343 343 342 342 341 341 340 339 337 336 336 336 335 333 332 330 329 327 327 326 327 328 329 328 327 326 324 321 318 316 315 314 313 310 309 308 308 308 308 308 307
324 326 328 330 330 330 331 332 332 332 333 334 333 333 334 334 334 334 335 334 333 335 339 342 342 342 342 341 341 339 338 337 337 336 334 333 331 330 329 327 325 325 326 328 329 328 328 326 324 320 318 317 316 315 313 311 309 308 307 307 307 308 308
327 329 331 332 331 330 331 332 332 332 332 333 333 333 333 333 332 332 333 333 331 331 334 338 340 341 341 340 340 340 339 339 337 336 335 333 332 330 329 327 325 324 326 328 328 328 328 326 323 321 318 316 315 314 312 310 308 307 307 307 307 307 308
331 332 333 332 331 331 332 332 331 330 331 331 332 332 331 332 331 331 331 331 331 331 331 333 336 339 340 339 339 339 340 339 338 336 335 334 332 331 329 327 325 324 326 328 329 328 327 327 325 321 317 315 314 313 311 308 307 307 306 306 306 306 306